Flag for United Kingdom Weather past 2 weeks in Newport (Isle of Wight), England, United Kingdom

Now
65 °F

Mild.


Feels Like: 65 °F
Forecast: 55 / 70 °F
Wind: 22 mph from West

Location: Solent M. R. S. C.

Current Time: Aug 30, 2014 at 2:12:08 PM

Latest Report: Aug 30, 2014 at 1:00 PM


Visibility: N/A

Pressure: 30.01 "Hg

Humidity: 70%

Dew point: 55 °F

Location of Newport (Isle of Wight)Location

Historic Weather in Newport (Isle of Wight) — Graph

°F

Newport (Isle of Wight) temperature yesterday

Maximum temperature yesterday: 65 °F (at 2:00 PM)
Minimum temperature yesterday: 60 °F (at 10:00 AM)
Average temperature yesterday: 63 °F

Past Weeks' High & Low Weather Summary

 TemperatureHumidityPressure
High69 °F (Aug 18, 3:00 PM)99% (Aug 25, 4:00 PM)30.20 "Hg (Aug 25, 4:00 PM)
Low46 °F (Aug 24, 6:00 AM)35% (Aug 23, 6:00 PM)29.55 "Hg (Aug 26, 5:00 AM)
Average61 °F76%29.93 "Hg
* Reported Aug 15 1:00 PM — Aug 30 12:00 Noon, Newport (Isle of Wight), Weather by CustomWeather, © 2014

Note: Actual official high and low records may vary slightly from our data, if they occured in-between our weather recording intervals... More about our weather records

Advertising

Newport (Isle of Wight) weather history for previous 24 hours

 ConditionsComfort  
Time TempWeatherWind HumidityBarometerVisibility
12:00 PM
Aug 30
66 °FMild.16 mph63%30.02 "HgN/A
11:00 AM64 °FMild.17 mph69%30.02 "HgN/A
10:00 AM63 °FMild.18 mph75%30.01 "HgN/A
9:00 AM61 °FCool.13 mph90%30.00 "HgN/A
8:00 AM60 °FCool.15 mph93%30.00 "HgN/A
7:00 AM59 °FCool.15 mph90%29.99 "HgN/A
6:00 AM64 °FMild.28 mph92%29.95 "HgN/A
5:00 AM63 °FMild.25 mph92%29.95 "HgN/A
4:00 AM63 °FMild.29 mph92%29.95 "HgN/A
3:00 AM63 °FMild.30 mph91%29.96 "HgN/A
2:00 AM63 °FMild.29 mph91%29.96 "HgN/A
1:00 AM63 °FMild.29 mph91%29.96 "HgN/A
12:00 AM63 °FMild.30 mph89%29.96 "HgN/A
11:00 PM
Aug 29
63 °FMild.35 mph89%29.96 "HgN/A
10:00 PM63 °FMild.28 mph91%29.97 "HgN/A
8:00 PM63 °FMild.29 mph89%29.95 "HgN/A
7:00 PM64 °FMild.30 mph88%29.95 "HgN/A
6:00 PM64 °FMild.29 mph88%29.95 "HgN/A
5:00 PM64 °FMild.32 mph86%29.95 "HgN/A
4:00 PM64 °FMild.32 mph85%29.95 "HgN/A
3:00 PM65 °FMild.31 mph82%29.96 "HgN/A
2:00 PM65 °FMild.31 mph79%29.95 "HgN/A
Weather by CustomWeather, © 2014

See weather overviewHow to use our weather pages